Weather History for Grand Island, NE

Change the Weather History Date:

Saturday, August 23, 2014

  Actual Average Record
Temperature  
Mean Temperature 78 °F 73 °F  
Max Temperature 89 °F 85 °F 109 °F (1943)
Min Temperature 67 °F 61 °F 45 °F (1966)
Degree Days  
Heating Degree Days 0 0  
Month to date heating degree days 0 0  
Since 1 June heating degree days 14 26  
Since 1 July heating degree days 4 2  
Cooling Degree Days 13 8  
Month to date cooling degree days 232 226  
Year to date cooling degree days 873 853  
Since 1 June cooling degree days 754 788  
Growing Degree Days 28 (Base 50)    
Moisture  
Dew Point 69 °F    
Average Humidity 76    
Maximum Humidity 93    
Minimum Humidity 59    
Precipitation  
Precipitation 0.07 in 0.10 in 1.35 in (1983)
Month to date precipitation 4.27 2.41  
Year to date precipitation 20.60 20.06  
Snow  
Snow 0.00 in 0.00 in - ()
Month to date snowfall 0.0 0.0  
Since 1 June snowfall 0.0 0.0  
Since 1 July snowfall 0.0 0.0  
Snow Depth 0.00 in    
Sea Level Pressure  
Sea Level Pressure 29.83 in    
Wind  
Wind Speed 10 mph (SE)    
Max Wind Speed 18 mph    
Max Gust Speed 25 mph    
Visibility 9 miles    
Events Rain , Thunderstorm    
T = Trace of Precipitation, MM = Missing Value Source: NWS Daily Summary

Daily Weather History Graph

Daily Weather History Graph

Search for Another Location

Airport:

Trip Planner

Search our weather history database for the weather conditions in past years. The results will help you decide how hot, cold, wet, or windy it might be!

Date:

Astronomy

Aug. 23, 2014 Rise Set
Actual Time 6:51 AM CDT 8:19 PM CDT
Civil Twilight 6:22 AM CDT 8:48 PM CDT
Nautical Twilight 5:47 AM CDT 9:23 PM CDT
Astronomical Twilight 5:10 AM CDT 9:59 PM CDT
Moon 5:08 AM CDT (8/23) 7:05 PM CDT (8/23)
Length of Visible Light 14h 26m
Length of Day
13h 28m
Waning Crescent, 3% of the Moon is Illuminated
Aug 23
Waning Crescent
Aug 25
New
Sep 2
First Quarter
Sep 8
Full
Sep 15
Last Quarter

Hourly Weather History & Observations

Time (CDT) Temp. Heat Index Dew Point Humidity Pressure Visibility Wind Dir Wind Speed Gust Speed Precip Events Conditions
12:03 AM 69.1 °F - 66.0 °F 90% 30.00 in 9.0 mi Variable 3.5 mph - 0.01 in Rain Light Rain
12:15 AM 69.1 °F - 66.0 °F 90% 29.99 in 6.0 mi NNW 6.9 mph - 0.04 in Rain , Thunderstorm Light Rain
12:32 AM 68.0 °F - 66.0 °F 93% 29.99 in 2.5 mi ENE 3.5 mph - 0.07 in Rain Light Rain
12:53 AM 68.0 °F - 66.0 °F 93% 29.91 in 8.0 mi North 6.9 mph - 0.11 in Rain Light Rain
1:45 AM 69.1 °F - 66.9 °F 93% 29.95 in 9.0 mi SSE 6.9 mph - 0.03 in Rain , Thunderstorm Light Rain
1:53 AM 69.1 °F - 66.0 °F 90% 29.92 in 7.0 mi North - - 0.04 in Rain , Thunderstorm Light Rain
2:21 AM 69.1 °F - 66.9 °F 93% 29.92 in 9.0 mi NNW 5.8 mph - 0.03 in Rain Light Rain
2:53 AM 68.0 °F - 66.0 °F 93% 29.85 in 10.0 mi East 12.7 mph - 0.03 in   Partly Cloudy
4:53 AM 66.9 °F - 64.9 °F 93% 29.82 in 10.0 mi ESE 8.1 mph - N/A   Clear
6:53 AM 68.0 °F - 64.9 °F 90% 29.82 in 10.0 mi ESE 6.9 mph - N/A   Clear
7:53 AM 70.0 °F - 66.0 °F 87% 29.82 in 10.0 mi ESE 9.2 mph - N/A   Clear
8:25 AM 70.0 °F - 66.9 °F 90% 29.89 in 10.0 mi SE 9.2 mph - N/A   Scattered Clouds
8:53 AM 70.0 °F - 66.9 °F 90% 29.84 in 10.0 mi ESE 12.7 mph - N/A   Mostly Cloudy
9:07 AM 71.1 °F - 66.9 °F 87% 29.89 in 10.0 mi ESE 8.1 mph - N/A   Mostly Cloudy
9:15 AM 71.1 °F - 68.0 °F 90% 29.89 in 10.0 mi ESE 8.1 mph - N/A   Mostly Cloudy
9:26 AM 71.1 °F - 68.0 °F 90% 29.89 in 10.0 mi ESE 10.4 mph - N/A   Overcast
9:53 AM 72.0 °F - 68.0 °F 87% 29.85 in 10.0 mi ESE 11.5 mph - N/A   Overcast
10:06 AM 73.0 °F - 68.0 °F 84% 29.88 in 10.0 mi ESE 13.8 mph 18.4 mph N/A   Overcast
10:53 AM 75.9 °F - 69.1 °F 79% 29.82 in 10.0 mi SE 12.7 mph 20.7 mph N/A   Overcast
11:20 AM 77.0 °F - 70.0 °F 79% 29.86 in 10.0 mi SE 10.4 mph - N/A   Scattered Clouds
11:53 AM 80.1 °F 83.2 °F 70.0 °F 71% 29.81 in 10.0 mi South 15.0 mph - N/A   Partly Cloudy
12:53 PM 82.9 °F 88.8 °F 73.0 °F 72% 29.78 in 10.0 mi SE 11.5 mph - N/A   Clear
1:53 PM 86.0 °F 92.2 °F 72.0 °F 63% 29.76 in 10.0 mi SSE 15.0 mph - N/A   Clear
2:53 PM 88.0 °F 94.7 °F 72.0 °F 59% 29.75 in 10.0 mi South 12.7 mph - N/A   Clear
3:53 PM 87.8 °F 93.8 °F 71.6 °F 58% 29.79 in 10.0 mi SSE 13.8 mph 21.9 mph N/A   Clear
4:53 PM 88.0 °F 95.6 °F 73.0 °F 61% 29.72 in 10.0 mi SSE 13.8 mph - N/A   Clear
5:53 PM 84.9 °F 91.4 °F 73.0 °F 67% 29.72 in 10.0 mi SSE 5.8 mph - N/A   Clear
6:53 PM 87.1 °F 94.5 °F 73.0 °F 63% 29.70 in 10.0 mi SSE 9.2 mph - N/A   Clear
7:53 PM 84.0 °F 91.2 °F 73.9 °F 72% 29.69 in 10.0 mi SSE 5.8 mph - N/A   Scattered Clouds
8:53 PM 79.0 °F - 73.0 °F 82% 29.71 in 10.0 mi SE 6.9 mph - N/A   Clear
9:53 PM 78.1 °F - 70.0 °F 76% 29.72 in 10.0 mi SSE 6.9 mph - N/A   Mostly Cloudy
10:53 PM 79.0 °F - 68.0 °F 69% 29.71 in 10.0 mi SSE 8.1 mph - N/A   Partly Cloudy
11:53 PM 79.0 °F - 64.9 °F 62% 29.73 in 10.0 mi West 12.7 mph - N/A Thunderstorm Scattered Clouds
11:56 PM 80.1 °F 81.7 °F 64.0 °F 58% 29.79 in 10.0 mi West 10.4 mph - N/A   Scattered Clouds